,

(GMT )
Al Udeid

Weather History for KQIR - March, 2012

Change the Weather History Date:

Sunday, March 11, 2012

  Actual Average Record
Temperature  
Mean Temperature 66 °F -  
Max Temperature 77 °F - - ()
Min Temperature 55 °F - - ()
Cooling Degree Days 1    
Growing Degree Days 16 (Base 50)    
Moisture  
Dew Point 43 °F    
Average Humidity 49    
Maximum Humidity 74    
Minimum Humidity 19    
Precipitation  
Precipitation 0.00 in - - ()
Sea Level Pressure  
Sea Level Pressure 30.03 in    
Wind  
Wind Speed 13 mph ()    
Max Wind Speed 29 mph    
Max Gust Speed 32 mph    
Visibility 6.2 miles    
Events      
Averages and records for this station are not official NWS values.
T = Trace of Precipitation, MM = Missing Value Source: Averaged Metar Reports

Daily Weather History Graph

Daily Weather History Graph

Search for Another Location

Airport or City:

Trip Planner

Search our weather history database for the weather conditions in past years. The results will help you decide how hot, cold, wet, or windy it might be!

Date:

Astronomy

Mar. 11, 2012 Rise Set
Actual Time 5:47 AM +03 5:41 PM +03
Civil Twilight 5:24 AM +03 6:04 PM +03
Nautical Twilight 4:58 AM +03 6:31 PM +03
Astronomical Twilight 4:31 AM +03 6:57 PM +03
Moon 9:06 PM +03 (3/11) 7:34 AM +03 (3/11)
Length of Visible Light 12h 39m
Length of Day
11h 54m
Waning Gibbous, 88% of the Moon is Illuminated
Mar 11
Waning Gibbous
Mar 15
Last Quarter
Mar 22
New
Mar 30
First Quarter
Apr 6
Full

Hourly Weather History & Observations

Time (+03) Temp. Dew Point Humidity Pressure Visibility Wind Dir Wind Speed Gust Speed Precip Events Conditions
12:55 AM 57.2 °F 44.8 °F 63% 29.98 in 6.2 mi WNW 10.4 mph - N/A   Clear
1:55 AM 57.0 °F 46.2 °F 67% 29.98 in 6.2 mi WNW 12.7 mph - N/A   Clear
2:55 AM 56.8 °F 46.9 °F 69% 29.98 in 6.2 mi WNW 12.7 mph - N/A   Clear
3:55 AM 55.0 °F 46.2 °F 72% 29.98 in 6.2 mi West 10.4 mph - N/A   Clear
4:55 AM 55.8 °F 46.6 °F 71% 30.00 in 6.2 mi WNW 11.5 mph - N/A   Clear
5:55 AM 55.8 °F 47.7 °F 74% 30.02 in 6.2 mi WNW 12.7 mph - N/A   Clear
6:55 AM 58.3 °F 49.3 °F 72% 30.04 in 6.2 mi WNW 11.5 mph - N/A   Clear
7:55 AM 64.2 °F 51.1 °F 62% 30.05 in 6.2 mi NW 15.0 mph - N/A   Clear
8:55 AM 68.7 °F 48.2 °F 48% 30.06 in 6.2 mi NNW 19.6 mph - N/A   Partly Cloudy
9:55 AM 72.5 °F 42.3 °F 34% 30.06 in 6.2 mi NNW 25.3 mph 29.9 mph N/A   Clear
10:55 AM 74.8 °F 39.6 °F 28% 30.05 in 6.2 mi NW 24.2 mph 29.9 mph N/A   Partly Cloudy
11:55 AM 76.8 °F 32.5 °F 20% 30.03 in 6.2 mi NNW 24.2 mph - N/A   Partly Cloudy
12:55 PM 77.0 °F 32.9 °F 20% 30.01 in 6.2 mi NNW 28.8 mph - N/A   Partly Cloudy
1:55 PM 77.4 °F 31.3 °F 19% 29.99 in 6.2 mi NNW 27.6 mph 32.2 mph N/A   Clear
2:55 PM 76.6 °F 34.3 °F 21% 29.99 in 6.2 mi NNW 24.2 mph 32.2 mph N/A   Clear
3:55 PM 75.2 °F 36.1 °F 24% 30.00 in 6.2 mi NNW 24.2 mph - N/A   Clear
4:55 PM 71.8 °F 36.7 °F 28% 30.01 in 6.2 mi NNW 23.0 mph - N/A   Clear
5:55 PM 68.4 °F 37.4 °F 32% 30.04 in 6.2 mi NNW 11.5 mph - N/A   Clear
6:55 PM 65.5 °F 41.7 °F 42% 30.04 in 6.2 mi NNW 10.4 mph - N/A   Clear
7:55 PM 63.7 °F 43.3 °F 48% 30.06 in 6.2 mi NNW 11.5 mph - N/A   Clear
8:55 PM 61.3 °F 45.3 °F 56% 30.07 in 6.2 mi NW 10.4 mph - N/A   Clear
9:55 PM 60.6 °F 48.6 °F 64% 30.08 in 6.2 mi NW 9.2 mph - N/A   Clear
10:55 PM 59.0 °F 48.6 °F 68% 30.06 in 6.2 mi WNW 8.1 mph - N/A   Clear
11:55 PM 58.6 °F 50.2 °F 73% 30.06 in 6.2 mi WNW 9.2 mph - N/A   Clear